This demonstration page uses our WeatherBlox Daily Observations layout. Learn more.

Left ArrowRight Arrow

41.86663, -103.66717

Hourly Observations for January 12, 2017

Temp ( °F °C ) Dew Point ( °F °C ) Humidity (%) Winds ( mph kmh ) Pressure ( in mb ) Visibility ( mi km ) Precip ( " mm )
12:02 am 00:02 Partly Cloudy 11 -11.7 7 -13.9 84 84 ENE 3 6 30.09 1019 8 13 0.00 0.00
12:53 am 00:53 Clear 10 -12.2 6 -14.4 84 84 SSW 3 6 30.01 1016 10 16 0.00 0.00
1:53 am 01:53 Clear 8 -13.3 3 -16.1 80 80 N 5 7 30.04 1017 10 16 0.00 0.00
2:53 am 02:53 Clear 7 -13.9 2 -16.7 80 80 NNE 7 11 30.08 1019 10 16 0.00 0.00
3:53 am 03:53 Clear 6 -14.4 1 -17.2 79 79 N 3 6 30.09 1019 10 16 0.00 0.00
4:53 am 04:53 Clear 6 -14.4 1 -17.2 79 79 Calm 30.14 1021 10 16 0.00 0.00
5:53 am 05:53 Clear 5 -15 1 -17.2 83 83 W 5 7 30.17 1022 10 16 0.00 0.00
6:53 am 06:53 Clear 7 -13.9 2 -16.7 80 80 WNW 6 9 30.23 1024 10 16 0.00 0.00
7:53 am 07:53 Sunny 8 -13.3 3 -16.1 80 80 NW 5 7 30.26 1025 10 16 0.00 0.00
8:53 am 08:53 Sunny 14 -10 7 -13.9 73 73 NW 12 19 30.27 1025 10 16 0.00 0.00
9:53 am 09:53 Sunny 18 -7.8 8 -13.3 65 65 VRB 3 6 30.34 1028 10 16 0.00 0.00
10:53 am 10:53 Mostly Sunny 19 -7.2 8 -13.3 62 62 Calm 30.36 1028 10 16 0.00 0.00
11:53 am 11:53 Cloudy 21 -6.1 8 -13.3 57 57 ESE 6 9 30.37 1028 10 16 0.00 0.00
12:53 pm 12:53 Sunny 21 -6.1 7 -13.9 54 54 E 10 17 30.36 1028 10 16 0.00 0.00
1:53 pm 13:53 Mostly Sunny 21 -6.1 7 -13.9 54 54 E 9 15 30.37 1028 10 16 0.00 0.00
2:53 pm 14:53 Cloudy 21 -6.1 5 -15 50 50 ESE 7 11 30.41 1030 10 16 0.00 0.00
3:53 pm 15:53 Cloudy 20 -6.7 6 -14.4 55 55 undefined N/A 30.40 1030 10 16 0.00 0.00
4:53 pm 16:53 Cloudy 20 -6.7 5 -15 52 52 SE 7 11 30.40 1029 10 16 0.00 0.00
5:53 pm 17:53 Cloudy 20 -6.7 8 -13.3 60 60 SSE 10 17 30.42 1030 10 16 0.00 0.00
6:53 pm 18:53 Cloudy 20 -6.7 7 -13.9 57 57 SE 9 15 30.42 1030 10 16 0.00 0.00
7:53 pm 19:53 Cloudy 20 -6.7 8 -13.3 60 60 SE 10 17 30.42 1030 10 16 0.00 0.00
8:53 pm 20:53 Cloudy 20 -6.7 9 -12.8 62 62 ESE 9 15 30.40 1029 10 16 0.00 0.00
9:53 pm 21:53 Cloudy 19 -7 10 -12 68 68 ESE 8 13 30.48 1032 10 16 0.00 0.00
10:53 pm 22:53 Cloudy 20 -6.7 11 -11.7 68 68 SE 9 15 30.37 1028 10 16 0.00 0.00
11:53 pm 23:53 Cloudy 20 -6.7 12 -11.1 71 71 E 8 13 30.37 1029 10 16 0.00 0.00

Powered by AerisWeather